Погода в Ушково

Россия / Санкт-Петербург и Ленинградская область     60°13′01″N   29°37′05″E
темп.,
°C
ветер,
м/с
пор.,
м/с
влажн.,
%
обл.,
%
осадки,
мм/ч
давл.,
гПа
погр.,
м
3 марта, ср
ср300:00−1зсз511880 0.0 1018395
03:00−1зсз512890 0.0 1018424
06:00−2зсз411912 0.0 1016345
09:00−2з410927 0.0 1015386
12:000з6118450 0.0 1013571
15:00+1з7128075 0.0 1010875
18:00+1з61386100 0.0 1006783
21:00+1зсз41288100 0.1 1005733
4 марта, чт
чт400:00−2сз3108590 0.0 1004540
03:00−4сз397847 0.0 1004360
06:00−5сз37850 0.0 1003284
09:00−5сз37870 0.0 1004356
12:00−4ссз358065 0.0 1004552
15:00−3ссз467682 0.1 1005853
18:00−4ссз4778100 0.1 1005764
21:00−5ссз398075 0.1 1006633
5 марта, пт
пт500:00−7ссз38840 0.0 1006457
03:00−7ссз378727 0.0 1008456
06:00−8сз378883 0.0 1009434
09:00−9ссз368787 0.0 1010377
12:00−6ссз357599 0.0 1012712
15:00−5сз347299 0.1 1013901
18:00−6ссз3676100 0.1 1014674
21:00−8сз378462 0.1 1016266
6 марта, сб
сб600:00−8сз25900 0.0 1016140
03:00−9зсз25910 0.0 1016139
06:00−9зюз37880 0.0 1015192
09:00−8зюз410840 0.0 1013430
12:00−4юз7127687 0.0 1009809
15:00−4ююз9169194 1.1 10031185
18:00−2юз91695100 2.9 9971097
21:00−1з81496100 8.4 993850
7 марта, вс
вс700:00−1зюз71496100 2.4 987768
03:00−1з71385100 4.1 983891
06:00−8з8166891 0.2 9821122
09:00−9з9168979 0.9 9821104
12:00−6сз91689100 1.3 9841049
15:00−5ссз81488100 1.8 9881094
18:00−7с71389100 0.4 9941150
21:00−11с61388100 0.7 9991041